Location: Boiro
(42.6475°N, 8.8834°W)
Time: 02:54:57
(UTC+01:00)

Vanguard 1 Rocket - Pass Details

Date: 14 December 2021
Orbit: 651 x 4224 km, 34.3° (Epoch: 21 January)

Event Time Altitude Azimuth Distance (km) Brightness Sun altitude
Rises 02:29:12 0° 244° (WSW) 3,498 - -67.0°
Reaches altitude 10° 02:31:20 10° 238° (WSW) 2,783 - -66.8°
Maximum altitude 02:37:45 48° 165° (SSE) 1,829 - -66.0°
Exits shadow 02:47:19 16° 100° (E) 4,327 10.9 -64.8°
Drops below altitude 10° 02:49:43 10° 97° (E) 5,072 11.3 -64.5°
Sets 02:55:06 0° 93° (E) 6,687 12.1 -63.8°
